Location: Newark
(60.5925°N, 45.5911°E)
Time: 03:44:30
(UTC+00:00)

ISS - Pass Details

Date: 28 September 2019
Orbit: 411 x 421 km, 51.6° (Epoch: 17 October)

Event Time Altitude Azimuth Distance (km) Brightness Sun altitude
Rises 16:14:41 0° 244° (WSW) 2,345 0.8 -12.3°
Reaches altitude 10° 16:17:12 10° 224° (SW) 1,482 -0.6 -12.6°
Maximum altitude 16:19:32 18° 180° (S) 1,093 -1.8 -12.8°
Enters shadow 16:20:40 15° 154° (SSE) 1,197 -1.9 -13.0°
